Location: ?????
(32.7281°N, 34.9563°E)
Time: 17:42:55
(UTC+00:00)

CZ-2C R/B - Pass Details

Date: 29 October 2020
Orbit: 703 x 909 km, 98.1° (Epoch: 30 November)

Event Time Altitude Azimuth Distance (km) Brightness Sun altitude
Rises 15:50:27 0° 146° (SE) 3,523 6.2 -12.9°
Reaches altitude 10° 15:53:01 10° 138° (SE) 2,582 5.4 -13.4°
Maximum altitude 15:58:20 39° 72° (ENE) 1,328 3.7 -14.5°
Drops below altitude 10° 16:03:32 10° 6° (N) 2,534 5.6 -15.6°
Sets 16:06:02 0° 358° (N) 3,450 6.3 -16.1°
